RH
78 82 83 79 78 78 75 72 72 72 71 72 74 74 75 75 75 75 73 70 65 63 63 62 63 61 57 54 52 50 45 39 35 33 31 34 37 37 36 38 42 43 42 41 38 36 38 40 41 41 43 48 47 44 43 46 52 56 56 53 49 48 46 39 32 30 29 28 26 25 26 27 30 31 32 32 30 29 32 34 32 32 35 37 36
78 83 83 80 81 80 77 73 73 75 75 74 72 72 72 73 75 76 74 70 68 68 66 62 64 63 58 57 57 53 46 38 35 37 36 33 32 33 34 35 36 35 35 38 37 35 36 40 42 43 46 46 43 43 47 51 56 57 53 48 44 43 41 34 28 26 26 27 27 27 28 30 31 32 33 34 33 32 36 39 38 39 44 46 45
75 81 80 81 84 83 80 78 76 77 78 74 69 68 69 71 75 76 74 70 67 67 62 60 63 63 60 58 58 56 48 39 36 37 38 37 36 36 36 35 33 30 30 33 35 35 36 40 45 48 49 48 47 50 54 54 54 56 55 49 42 36 31 27 25 24 24 25 25 27 29 30 31 33 34 36 37 37 40 44 44 46 47 48 49
74 79 81 84 87 87 84 81 77 77 77 72 68 68 68 71 76 77 74 68 62 59 58 58 61 61 59 57 58 58 50 41 39 39 39 39 39 37 36 35 33 30 30 31 33 36 39 43 48 51 51 52 51 53 54 52 50 53 53 47 39 30 24 23 24 24 24 25 26 28 30 31 33 34 35 37 41 42 43 44 45 46 47 47 49
73 78 84 88 89 88 84 80 76 75 75 72 69 69 68 71 76 76 71 64 55 54 59 62 62 62 61 58 58 58 51 43 39 40 41 40 39 38 37 36 34 32 29 29 31 35 40 45 49 52 53 52 50 53 53 50 49 52 50 41 32 28 26 24 24 26 28 30 31 31 32 34 36 38 39 41 43 44 43 44 44 46 47 48 49
73 78 86 91 89 85 81 79 75 73 75 76 73 70 69 70 72 71 66 59 53 54 61 65 64 65 63 58 57 56 50 43 39 38 40 41 40 40 40 39 37 34 31 31 31 34 40 47 49 50 52 50 51 55 53 48 47 47 42 34 28 30 32 29 28 30 33 34 35 35 36 38 40 42 43 43 43 44 44 45 47 48 50 51 51
78 79 83 90 89 84 80 78 74 72 73 77 77 71 68 67 64 61 59 58 57 59 64 65 65 66 62 58 57 55 49 42 39 37 38 40 40 40 39 40 40 37 36 36 35 36 42 48 50 49 48 47 49 50 46 43 43 40 36 34 34 38 40 38 36 36 37 39 40 41 42 42 43 44 43 42 44 45 46 48 50 52 53 53 52
82 79 79 84 84 85 85 81 76 73 72 76 78 72 66 62 57 54 54 56 59 63 67 68 68 68 65 62 61 59 51 42 38 38 38 38 39 39 37 38 40 41 41 40 39 40 43 48 50 49 49 48 47 44 41 41 40 39 41 43 43 45 46 45 44 42 42 44 46 47 47 45 44 44 44 44 45 47 48 49 51 53 53 53 52
82 80 78 81 82 84 85 79 75 73 73 76 78 75 69 62 58 57 58 59 63 67 71 73 72 73 70 66 64 60 53 43 38 38 39 40 40 40 38 38 40 42 43 43 41 41 42 43 44 45 47 48 44 41 41 42 42 45 48 46 45 47 48 47 46 45 45 47 48 49 50 50 48 47 47 47 47 48 49 49 51 52 54 55 55
81 80 80 81 82 82 79 76 76 76 76 78 79 77 73 68 65 64 65 65 67 70 74 76 78 78 73 67 64 61 53 45 39 38 39 40 41 42 42 42 42 43 44 43 41 40 41 40 38 37 38 38 36 34 36 39 41 44 47 45 42 44 47 47 47 46 47 48 50 51 53 53 53 52 51 49 48 48 48 48 50 52 53 56 56
79 80 81 82 82 82 80 78 79 80 80 80 81 79 76 73 72 71 70 71 71 74 78 80 82 82 77 70 67 64 56 47 42 41 41 41 41 43 46 46 46 46 46 45 43 42 41 40 37 35 34 34 33 33 34 36 37 39 40 41 40 41 44 46 46 45 45 46 48 51 52 53 54 55 54 54 52 50 47 46 50 52 53 56 57
79 79 81 81 80 83 85 84 82 81 82 81 80 80 78 77 78 77 77 78 78 81 83 83 84 83 76 72 72 70 61 50 42 40 42 42 42 45 49 50 49 49 49 47 46 46 46 45 42 38 37 37 37 37 37 37 37 38 39 40 40 40 41 43 44 46 47 48 50 51 52 53 56 57 56 56 56 53 50 49 54 56 54 55 57
84 82 83 83 82 83 87 89 88 86 85 83 83 83 83 83 84 83 83 85 86 86 85 84 84 79 71 68 71 71 66 56 46 42 43 44 45 46 50 52 51 51 50 48 48 48 49 49 47 44 42 41 41 43 44 42 41 41 41 41 42 42 41 42 43 45 48 51 52 54 54 54 55 56 54 53 53 52 52 52 54 55 56 59 62
89 89 91 90 88 86 86 88 89 88 87 87 88 87 86 87 88 88 89 90 88 86 83 82 82 78 71 68 69 69 67 62 55 51 48 47 48 48 50 49 49 48 47 46 47 48 49 49 50 49 48 46 46 47 48 49 47 45 44 43 43 43 42 41 42 45 47 49 50 52 53 53 53 53 51 50 48 48 51 53 53 54 57 60 63
91 91 93 94 92 91 90 89 90 91 90 89 90 90 90 91 90 89 89 88 86 85 83 82 82 79 74 72 73 74 72 68 64 60 57 55 54 54 52 51 49 47 47 47 48 49 49 49 50 51 51 51 51 50 50 51 51 49 48 47 47 47 46 43 43 44 46 47 48 49 51 52 52 51 49 48 47 47 50 53 54 55 56 56 58
93 93 95 96 96 95 95 93 94 95 94 93 93 94 94 93 90 88 87 87 86 85 84 84 83 81 77 75 78 80 79 75 71 67 63 61 61 62 61 60 56 54 53 53 53 53 53 53 53 53 54 53 52 52 52 53 53 52 51 50 50 51 49 46 44 45 46 47 48 48 48 49 49 50 50 51 52 52 53 54 55 56 56 56 57
94 95 95 97 97 96 95 94 93 94 93 92 92 92 92 90 88 87 87 86 85 85 85 85 84 82 79 78 79 82 83 81 77 73 69 67 67 67 68 68 66 63 60 57 55 54 54 54 55 55 56 56 55 56 56 55 54 53 51 51 50 51 50 47 45 45 46 46 46 48 50 51 52 53 54 55 56 56 56 54 54 54 54 54 55
93 93 92 93 93 91 90 90 90 90 91 89 88 87 86 85 86 86 85 84 84 85 86 86 86 84 81 79 78 80 83 83 81 77 74 71 69 68 68 69 68 66 64 61 58 57 56 56 56 56 56 55 55 56 56 55 54 52 51 50 49 50 52 51 49 49 50 51 52 54 56 57 58 57 57 58 60 60 60 58 54 53 52 51 52
85 84 83 83 83 83 83 84 83 84 85 85 83 81 80 81 80 79 78 78 78 80 82 81 82 81 79 78 77 77 78 78 77 74 71 68 67 65 65 65 64 63 62 60 58 58 58 58 58 59 59 57 55 55 56 56 58 58 58 58 59 61 62 63 62 60 59 60 62 63 63 63 62 60 59 60 61 61 60 59 56 56 54 52 53
80 78 75 73 73 73 74 75 75 75 76 75 73 72 73 74 72 70 70 69 68 68 69 69 70 70 70 70 69 69 69 69 67 66 64 62 62 61 60 61 60 60 59 59 58 58 57 57 56 56 57 57 56 55 55 56 57 59 61 63 65 65 65 66 67 64 62 62 62 62 62 61 60 60 60 61 63 65 64 64 64 64 65 63 61
82 80 79 77 75 74 73 73 74 73 71 69 68 67 67 68 67 66 65 64 61 59 58 58 59 60 61 61 60 60 59 58 57 57 56 56 56 56 56 57 58 58 58 58 58 57 58 59 56 53 54 56 55 55 55 56 56 57 57 58 59 60 61 63 65 65 64 64 63 63 63 63 64 66 68 71 73 74 72 72 72 73 75 75 73
82 80 80 80 79 78 77 76 76 75 72 69 67 66 65 65 64 63 62 62 60 59 57 57 57 56 56 55 55 55 54 53 53 53 54 54 55 54 55 56 57 57 57 57 58 57 58 58 56 53 55 56 56 56 57 57 57 58 59 60 62 64 65 66 67 69 70 70 71 71 72 73 74 76 78 78 77 75 73 71 72 74 76 76 73
80 78 78 78 79 78 77 77 77 76 74 71 68 66 65 64 64 64 64 64 63 62 61 61 60 59 59 58 58 59 58 57 57 57 58 58 58 58 58 58 59 59 59 59 60 60 60 59 58 58 59 60 59 59 59 58 58 58 59 61 64 67 69 71 72 74 76 76 77 79 80 82 82 79 77 76 73 71 70 68 67 68 69 69 68
80 78 77 77 79 79 77 77 77 76 75 73 71 70 68 67 67 67 66 65 64 63 63 63 64 64 64 64 64 64 63 62 62 62 62 62 62 62 61 60 60 60 60 60 61 60 60 59 60 61 61 61 61 60 60 59 59 58 58 59 60 62 65 68 70 74 77 77 78 78 78 81 81 78 76 73 68 64 62 62 62 62 63 65 67
80 79 77 78 79 79 78 77 77 76 75 75 74 74 74 73 73 72 70 68 67 67 67 67 67 67 67 66 66 65 64 63 61 60 59 58 58 57 56 55 54 53 52 52 51 50 50 50 51 51 52 52 53 53 54 54 53 53 54 54 54 54 55 56 58 62 66 71 73 70 68 72 77 78 76 71 62 57 58 59 59 59 60 62 64
79 78 77 77 77 76 75 75 74 74 73 73 73 73 73 73 73 72 71 70 69 68 68 68 67 66 66 64 63 62 61 59 57 55 52 51 50 49 47 46 45 43 42 41 40 39 39 38 38 38 37 38 39 39 40 41 42 43 43 44 44 44 45 46 45 45 49 56 63 61 59 63 68 70 70 69 63 59 58 58 58 59 59 60 59
77 76 76 75 74 73 73 72 72 72 71 70 70 69 68 67 67 67 66 65 64 64 63 61 61 61 60 58 56 56 56 57 55 50 46 44 43 41 39 38 37 36 35 35 34 32 31 30 30 30 29 29 29 30 30 31 33 34 36 37 37 36 37 39 40 40 42 47 53 54 52 53 54 54 61 68 68 63 63 65 65 64 63 60 57
76 75 74 73 72 72 71 71 72 72 70 67 66 65 63 61 61 60 59 57 56 56 55 53 53 53 52 50 49 49 50 52 49 43 39 37 35 33 32 31 30 30 30 29 28 27 27 27 27 27 28 30 32 33 35 37 38 38 38 38 37 34 34 35 36 40 45 48 50 50 49 49 48 48 53 59 61 63 71 75 73 71 68 63 57
74 73 73 72 71 71 71 70 70 71 69 66 63 59 57 56 55 54 52 51 49 49 48 47 46 45 44 43 41 40 40 40 38 35 34 33 31 30 29 28 27 27 26 26 26 26 25 26 27 29 32 34 35 36 37 38 38 39 39 37 36 35 36 35 34 36 41 46 47 47 46 46 45 45 49 52 53 57 63 67 66 65 61 54 48
73 72 71 71 72 74 74 72 70 71 71 69 65 61 57 55 53 50 49 47 45 44 43 42 40 39 38 36 35 34 34 34 33 33 32 31 30 29 28 27 25 25 24 24 24 23 23 25 28 31 32 32 31 32 33 33 32 33 34 33 31 30 32 35 35 34 36 40 42 42 42 43 42 43 48 53 54 53 54 54 53 49 44 42 40
71 70 67 65 66 70 70 68 67 67 66 65 63 61 58 54 51 47 45 43 42 41 40 38 37 35 33 32 32 31 30 31 30 29 29 28 27 27 26 25 24 22 21 21 21 21 24 27 30 30 30 30 30 30 30 29 27 28 29 31 30 28 28 31 34 35 35 36 36 37 38 39 39 40 43 45 46 45 43 40 39 38 41 42 41
67 66 64 61 61 62 61 59 57 57 55 54 53 53 51 49 48 46 44 42 40 39 37 36 35 33 31 30 29 28 28 28 27 26 26 26 25 24 24 23 22 21 21 20 20 22 26 30 31 31 32 33 33 31 29 28 28 29 30 31 33 33 32 32 33 34 35 36 36 37 38 39 39 39 40 42 44 43 43 42 43 46 48 47 46
63 61 59 58 57 56 54 52 51 49 48 47 46 45 44 43 43 43 42 41 39 37 35 33 32 30 29 27 26 25 24 23 22 22 22 22 22 22 21 21 22 22 22 22 24 26 28 29 31 32 33 34 34 34 32 31 32 32 33 33 34 35 36 35 33 33 34 35 36 39 41 41 41 41 44 49 53 54 54 54 53 53 53 53 55
56 53 52 51 50 49 48 47 46 45 44 43 42 42 41 40 40 39 38 37 36 34 32 30 28 26 24 23 21 20 19 20 19 18 19 21 22 21 21 23 25 24 23 25 28 29 30 31 32 33 35 34 34 34 34 34 34 34 33 34 34 36 38 38 37 36 35 36 38 42 46 47 47 47 49 52 54 53 53 53 53 56 59 60 60
47 45 44 43 42 41 41 40 39 39 39 38 36 35 35 35 35 34 34 33 32 31 30 29 27 24 21 20 20 19 20 21 20 21 22 23 24 24 26 29 31 30 29 30 32 33 34 34 35 36 36 36 36 36 36 37 38 37 37 36 37 37 38 39 39 39 40 41 43 46 50 53 53 52 52 52 51 50 53 56 59 62 67 72 74
37 35 35 35 34 34 34 35 35 35 34 33 32 31 31 31 32 32 32 33 31 30 30 31 29 26 23 22 23 23 24 25 25 26 27 26 26 28 31 33 34 33 33 33 33 34 35 37 37 38 38 38 39 39 40 40 41 42 43 43 43 44 44 44 42 42 43 46 48 51 54 57 58 56 55 55 54 53 56 59 59 60 67 80 89
32 31 31 32 33 33 33 33 34 35 34 33 32 31 31 32 32 32 33 32 30 30 31 31 31 29 27 26 27 27 29 30 29 29 29 28 28 31 34 34 34 34 34 34 34 35 37 39 40 39 40 41 41 41 42 44 46 47 47 48 49 51 53 52 51 49 48 49 51 52 54 56 58 58 57 56 55 55 56 58 59 63 71 79 87
34 32 31 31 32 33 32 32 33 34 34 33 32 32 33 33 32 34 35 34 32 32 33 33 32 31 28 27 28 28 30 32 32 31 32 33 33 34 36 36 35 35 34 34 34 36 38 40 41 41 41 40 39 41 44 47 48 48 49 51 53 57 62 65 65 62 59 56 55 54 53 52 54 54 55 54 52 53 57 58 60 69 78 81 83
38 36 32 30 30 31 31 33 33 33 33 34 34 34 36 36 35 36 37 37 37 36 36 36 37 36 32 29 29 29 31 35 35 34 35 35 35 37 38 37 35 34 32 32 34 36 38 41 42 41 39 38 40 44 48 49 50 50 52 56 61 67 72 74 72 69 64 59 57 56 53 51 51 52 54 54 53 55 60 64 66 73 84 88 89
41 39 35 32 30 31 33 34 35 34 34 35 36 37 39 40 39 39 39 39 39 38 37 38 40 39 35 32 31 31 33 38 39 38 37 37 37 38 39 38 37 35 34 34 34 36 39 41 42 42 40 41 46 50 51 52 54 55 54 57 63 68 70 70 70 69 67 64 64 64 63 61 60 60 59 60 61 62 65 70 77 84 92 95 96
43 41 38 34 31 32 35 36 36 37 39 40 40 41 43 44 42 41 40 39 38 38 39 40 42 41 39 37 35 35 37 41 42 42 42 41 41 41 41 40 39 37 37 36 36 37 39 41 42 43 45 48 53 55 55 58 61 61 59 62 67 68 68 71 75 80 83 81 77 76 74 71 70 69 67 67 69 70 72 79 88 95 98 97 95
45 42 40 36 33 33 37 39 40 41 43 44 44 44 45 45 45 44 42 41 40 40 40 42 44 44 42 39 38 38 41 43 43 44 44 44 44 44 43 42 40 39 39 38 37 38 40 42 44 49 52 54 57 60 62 66 69 67 66 72 75 73 72 75 79 85 92 92 87 83 81 78 76 76 77 77 76 76 81 90 97 98 96 91 86
45 41 40 38 36 37 40 44 45 46 46 46 46 46 46 46 45 45 45 43 43 43 43 43 44 44 42 41 40 41 44 44 43 44 44 43 43 43 43 42 42 41 41 39 40 42 43 45 50 55 56 56 58 62 66 70 73 71 72 77 80 79 79 82 85 88 92 94 91 89 86 83 81 81 81 81 80 82 90 96 97 92 86 82 79
44 41 40 42 44 45 46 48 49 49 48 47 46 46 46 46 47 48 48 47 47 47 47 47 46 45 45 44 44 44 45 44 42 42 42 41 41 42 43 43 43 43 42 43 45 47 48 49 53 58 59 59 61 65 69 72 72 71 75 81 83 83 84 86 89 92 93 93 93 92 89 86 86 88 89 88 88 90 93 93 88 83 80 78 77
48 44 44 47 51 52 51 51 51 51 49 48 47 47 47 49 50 52 52 52 52 51 51 51 50 48 48 47 46 45 45 45 42 41 41 41 41 43 44 45 45 45 45 47 50 51 51 53 55 59 62 62 62 65 73 76 72 70 75 82 85 87 89 89 89 90 91 91 92 93 92 93 95 97 97 96 93 91 90 88 84 82 80 78 76
58 53 51 51 54 54 52 51 52 50 49 48 47 48 50 52 53 54 54 53 52 52 51 50 49 48 46 46 44 44 45 46 45 43 42 42 43 44 46 47 48 49 51 53 55 55 55 56 59 63 66 65 64 69 78 81 77 75 79 84 86 87 89 90 90 90 88 88 89 92 94 97 99 98 95 93 90 88 86 85 85 84 82 79 76
66 60 54 53 55 54 53 52 51 49 48 50 51 52 53 54 54 54 52 50 50 49 48 47 46 45 44 42 42 42 44 45 46 45 45 44 44 45 48 51 53 55 58 60 59 59 61 62 64 67 68 68 70 75 82 85 85 85 86 86 85 84 83 85 88 89 88 87 91 94 95 95 95 93 90 88 87 86 85 84 84 83 82 80 76
69 63 55 53 54 55 55 54 50 48 49 53 54 54 53 53 52 50 49 48 48 47 47 45 44 44 44 44 44 44 45 46 47 48 47 46 45 47 51 54 57 60 64 65 63 63 66 68 69 71 72 72 73 77 81 84 87 88 87 84 82 80 79 80 82 84 83 86 92 96 95 91 89 88 87 86 86 86 85 84 82 80 79 77 73
70 64 55 52 55 56 56 55 52 50 51 53 53 52 51 50 49 49 48 48 47 46 45 45 44 44 45 46 46 47 47 47 47 47 47 47 49 52 57 60 61 62 66 67 65 64 67 70 70 71 72 72 72 74 76 78 80 81 80 79 78 76 75 75 77 78 80 85 91 94 92 90 89 88 87 87 87 85 84 83 80 77 75 72 69
71 65 56 52 55 58 58 57 54 52 50 49 48 48 48 49 49 49 48 47 47 46 46 46 45 44 45 45 46 46 47 47 47 47 47 47 49 55 61 65 65 63 64 67 69 68 69 68 68 67 68 69 70 70 70 71 72 72 72 72 73 71 69 68 69 71 75 82 88 90 89 88 88 87 87 87 86 84 82 80 78 76 72 69 67
66 61 55 55 58 60 59 57 54 52 51 49 47 47 48 48 49 49 49 48 48 48 48 47 46 44 44 44 44 45 46 47 47 48 47 45 45 51 59 65 65 65 65 68 69 70 67 65 64 67 70 74 76 76 74 71 70 69 67 67 68 67 64 62 62 63 67 74 82 87 87 88 88 88 86 85 84 82 80 78 76 72 68 66 65